Location: Franzen
(48.6167°N, 15.3833°E)
Time: 09:51:36
(UTC+00:00)

Meteor 2-3 Rocket - Pass Details

Date: 22 April 2021
Orbit: 840 x 887 km, 81.2° (Epoch: 16 May)

Event Time Altitude Azimuth Distance (km) Brightness Sun altitude
Rises 20:05:28 0° 345° (NNW) 3,487 8.0 -18.1°
Reaches altitude 10° 20:07:58 10° 341° (NNW) 2,539 7.2 -18.4°
Maximum altitude 20:13:35 56° 265° (W) 1,028 4.3 -19.0°
Enters shadow 20:17:48 17° 192° (SSW) 2,020 5.3 -19.5°
